Wind_Speed
12 10 9 10 11 11 11 10 10 10 11 13 13 12 10 9 8 8 10 12 13 13 9 8 8 7 6 4 7 10 12 12 11 10 8 8 7 6 6 8 9 8 7 5 5 5 5 5 4 4 4 5 5 4 4 4 4 4 4 4 4 3 3 3 4 4 4 6 6 7 6 6 7 7 8 8 8 8 8 9 9 10 10 11 12
13 12 11 10 11 12 13 12 12 12 12 13 14 14 12 11 10 9 10 11 13 12 10 10 10 10 8 5 6 11 14 14 13 12 10 10 8 6 6 8 8 7 6 6 6 5 5 4 4 5 4 4 4 4 4 4 4 4 4 3 3 3 2 2 4 4 4 5 6 6 6 6 6 7 7 7 7 8 8 9 9 9 10 10 11
14 14 13 12 12 13 14 14 14 13 13 13 14 14 14 12 12 11 11 11 12 11 10 11 11 11 9 7 7 11 15 16 15 13 12 11 8 6 7 9 10 10 6 6 7 5 6 5 4 5 5 4 4 4 4 4 4 4 4 3 3 3 3 3 4 5 5 6 7 6 6 6 6 7 8 8 8 7 7 8 8 9 9 10 10
15 15 15 15 15 15 15 16 16 15 14 14 14 14 13 13 12 12 12 12 12 12 12 11 11 11 9 8 9 12 15 17 17 15 13 12 9 6 9 12 13 13 9 7 8 6 6 6 5 6 6 5 5 4 5 4 4 4 4 4 4 4 4 4 4 5 5 5 7 6 5 5 5 6 7 8 8 7 8 8 8 8 9 10 10
16 17 17 17 18 17 18 19 19 18 17 16 15 13 13 13 13 13 14 14 13 12 11 10 10 11 10 9 11 13 16 18 19 17 14 13 10 7 10 15 15 15 11 9 10 8 6 7 6 6 6 5 5 5 5 5 5 5 4 5 5 5 5 5 4 5 5 5 5 4 3 3 4 4 6 8 7 7 8 9 9 9 9 10 11
17 18 18 19 20 20 21 22 21 20 19 19 17 15 15 16 16 16 15 15 15 12 10 11 12 12 11 11 13 14 16 18 19 18 16 14 10 9 12 16 17 15 13 11 11 10 8 8 7 7 6 5 5 5 6 6 5 5 5 5 6 7 6 6 5 5 5 5 4 4 3 3 4 4 5 8 8 7 7 8 10 10 9 9 10
17 18 19 20 21 22 23 23 23 22 21 20 18 18 19 19 19 19 17 16 15 13 11 11 13 13 13 13 14 15 16 18 19 18 17 15 12 12 15 18 18 16 14 12 11 10 10 9 7 7 6 6 5 5 7 7 6 7 7 6 7 7 7 6 6 5 5 5 4 4 3 4 4 5 8 10 8 7 7 8 10 10 10 10 10
16 16 17 19 20 22 22 22 21 21 22 20 16 17 20 20 20 19 18 17 15 14 13 12 13 14 14 15 16 16 17 18 19 19 18 17 16 15 18 20 19 17 14 12 12 12 12 10 9 9 7 7 7 7 8 7 6 7 7 7 7 7 7 7 6 6 5 5 4 4 5 5 6 7 10 10 10 10 10 10 11 11 11 11 11
14 14 15 16 18 19 18 17 18 18 20 20 16 16 17 19 20 19 19 19 17 15 13 12 13 14 15 16 17 17 18 19 20 20 20 20 19 17 19 21 19 17 14 12 13 13 13 12 10 10 9 8 7 8 8 7 7 7 7 8 8 8 8 8 7 7 6 6 6 7 7 8 9 10 12 13 14 14 13 12 12 12 12 12 12
12 12 13 14 15 16 15 14 14 16 17 17 16 17 17 18 20 20 21 20 18 15 13 12 13 14 15 17 19 18 18 19 21 21 21 22 21 19 20 21 20 18 14 13 13 13 13 13 11 10 9 8 8 8 7 7 7 7 7 8 7 8 9 9 8 7 7 7 8 9 10 10 11 13 15 15 15 14 13 13 12 13 14 13 13
11 11 12 13 14 14 14 13 13 14 14 16 17 17 17 18 18 18 18 19 19 18 15 13 12 13 15 16 19 20 20 21 22 23 23 23 22 19 20 21 20 18 15 13 14 14 14 13 12 10 8 9 9 8 8 8 8 8 8 8 8 9 9 9 9 8 8 8 9 11 11 11 12 14 14 14 14 13 13 13 13 15 15 15 16
11 11 12 14 15 15 14 14 13 14 14 16 17 18 18 17 16 16 17 18 19 18 15 14 13 14 15 17 17 19 20 21 22 24 24 25 22 20 20 20 20 19 17 15 15 15 14 14 13 11 9 10 10 9 9 9 9 9 9 10 10 9 9 10 9 9 10 9 10 11 11 12 13 14 14 13 13 13 13 13 15 16 16 16 18
10 11 13 14 16 16 15 15 15 15 15 16 16 17 18 17 16 17 18 20 20 18 17 14 12 12 12 14 16 16 16 18 20 23 24 25 23 20 20 20 21 21 19 17 16 16 15 14 13 12 11 12 11 11 10 10 11 10 9 10 10 9 10 10 10 10 10 9 10 12 11 12 13 13 12 11 12 13 12 13 14 14 14 15 16
10 12 14 15 15 16 16 16 16 16 15 15 15 15 17 17 16 16 17 19 21 20 19 15 13 13 10 7 9 12 13 14 17 20 22 23 23 21 21 21 21 22 22 20 18 17 16 14 14 13 13 12 12 12 12 10 11 11 10 10 10 10 10 10 11 11 10 10 12 13 12 12 12 13 11 10 11 12 12 13 12 12 13 14 14
12 14 15 15 15 16 16 17 17 16 16 15 14 15 16 17 17 17 16 18 19 19 20 20 16 14 10 5 4 6 8 11 14 19 21 21 21 22 22 23 23 24 25 22 20 18 16 15 15 15 15 14 13 13 13 10 11 12 11 11 11 10 10 11 11 10 10 12 13 13 13 13 13 13 11 10 10 11 12 12 12 12 13 13 13
15 16 17 17 17 17 17 17 18 18 17 16 16 16 17 17 18 19 18 17 17 16 19 23 20 14 7 2 2 3 3 6 11 18 21 20 21 22 23 24 25 26 27 24 21 19 17 16 16 17 16 15 14 15 14 11 12 14 11 12 12 11 11 11 11 9 11 14 13 12 14 13 14 13 11 11 11 11 11 11 12 13 13 13 13
17 18 19 19 19 19 19 19 19 19 19 18 18 17 17 18 18 18 19 19 18 16 17 21 23 21 14 4 2 2 2 5 8 11 18 22 22 22 23 24 25 28 28 25 22 20 18 18 18 18 17 16 16 15 14 12 13 15 13 13 12 11 11 12 12 10 12 14 13 13 14 13 13 12 11 11 11 11 11 11 12 13 13 12 10
19 20 21 21 21 21 20 21 21 21 20 19 18 19 18 19 19 19 20 20 19 18 17 19 22 26 25 16 8 5 3 5 5 3 10 18 20 21 22 24 26 29 29 26 24 23 20 20 20 19 18 17 17 16 15 14 15 16 14 15 13 11 12 12 12 11 10 12 13 13 14 13 12 11 10 10 10 10 11 11 13 13 11 10 8
19 20 21 22 22 22 21 21 22 23 22 20 18 19 19 20 20 20 20 21 20 20 19 18 19 23 27 24 17 12 7 7 6 1 3 9 15 20 22 25 27 29 30 28 26 24 22 22 21 20 19 18 18 18 17 15 16 17 15 15 14 13 14 13 11 11 10 11 12 14 15 13 12 11 10 10 10 11 12 13 13 12 10 8 6
17 17 18 19 19 20 21 22 23 23 23 23 22 22 22 21 21 21 21 21 22 22 21 19 19 21 24 24 22 19 14 12 12 7 3 3 8 13 18 23 25 27 29 28 27 26 24 24 23 22 20 19 19 19 18 17 17 18 17 16 16 15 15 14 12 12 11 11 12 13 14 13 12 12 11 11 11 11 12 12 11 10 8 5 3
17 17 16 17 18 18 19 20 22 22 23 24 26 25 24 23 22 21 22 23 22 22 23 23 23 23 22 22 21 20 19 17 16 13 8 4 4 6 11 15 16 22 27 27 27 27 26 26 25 24 22 20 20 19 19 19 18 18 17 17 18 16 15 14 13 12 12 12 12 13 14 13 13 13 12 11 11 11 11 10 9 8 6 4 3
15 14 14 15 16 17 18 18 20 21 23 25 26 27 26 24 24 23 23 24 23 23 24 25 26 26 25 23 20 18 16 14 14 15 10 6 5 5 10 12 10 17 25 28 28 28 28 27 26 25 24 22 21 20 20 20 20 20 17 18 21 18 16 15 13 13 13 13 13 15 15 15 15 14 13 12 12 12 11 9 8 7 6 5 4
11 12 13 14 15 16 17 19 19 21 22 24 25 26 26 25 24 24 24 24 24 25 26 27 26 26 25 25 24 22 19 16 17 18 13 7 6 4 10 15 13 14 22 27 29 29 29 28 27 27 25 24 23 21 21 22 21 21 19 19 21 20 18 17 15 14 15 14 14 16 16 16 16 15 14 12 12 12 12 10 9 8 7 6 6
10 11 13 15 16 17 18 19 21 21 22 23 24 25 25 25 25 24 24 25 25 25 25 25 26 27 26 26 28 27 27 25 23 23 19 15 11 5 8 14 12 11 18 24 26 29 31 30 28 28 26 25 24 23 22 22 22 22 21 20 20 20 20 19 16 15 15 15 15 15 15 16 17 15 14 13 11 11 11 11 11 10 8 9 9
10 11 14 16 16 17 18 20 21 22 22 22 23 25 25 25 25 26 26 27 26 26 26 25 26 28 27 27 28 29 30 29 25 23 23 19 12 6 8 13 11 8 13 20 23 24 28 31 29 27 27 26 24 24 23 22 22 22 22 22 21 20 21 20 18 17 15 15 15 16 14 15 16 15 14 13 10 9 10 11 12 12 10 10 11
10 12 15 16 17 18 19 20 21 21 21 21 22 23 24 24 25 26 27 28 26 26 26 26 28 30 29 27 28 29 30 30 28 26 25 22 16 11 9 9 9 8 9 18 21 18 19 26 29 27 26 27 25 25 25 23 22 23 22 23 22 21 21 22 20 18 16 15 15 16 16 15 16 16 14 13 11 10 11 11 11 12 12 11 11
11 13 15 16 18 19 20 21 21 20 20 20 21 21 22 24 25 26 27 27 26 26 26 26 27 29 29 28 27 27 28 29 28 27 27 26 23 21 15 8 6 6 5 11 17 17 17 20 25 28 27 26 27 26 26 24 23 22 22 22 23 22 21 22 22 20 18 17 16 16 16 14 13 17 17 14 12 10 11 11 10 12 15 13 12
12 14 15 16 18 19 20 21 20 19 18 18 21 22 22 23 24 25 26 26 25 26 25 25 26 26 28 28 26 25 27 27 26 27 27 27 24 23 21 14 7 4 4 6 8 12 18 19 20 26 28 27 27 27 27 26 24 22 22 21 22 23 22 22 23 22 20 19 17 16 15 13 11 18 19 15 13 9 10 10 8 11 16 15 13
12 14 15 16 17 17 18 19 18 17 17 17 20 22 22 22 23 24 25 24 23 24 25 25 25 26 27 27 25 25 25 24 24 25 25 26 24 21 22 21 14 7 4 4 4 7 16 21 20 22 27 28 27 27 27 26 25 23 22 21 22 24 23 22 23 23 22 21 19 17 16 14 12 19 20 16 12 8 9 10 8 10 16 16 15
12 14 15 15 16 16 17 17 17 17 17 17 18 19 19 20 23 24 23 22 21 23 24 24 25 25 24 24 24 25 23 22 22 23 23 24 24 23 23 23 20 13 8 6 6 10 16 21 22 23 26 28 27 26 26 25 25 24 23 23 23 24 24 23 23 23 22 22 20 18 17 15 15 20 20 16 12 8 9 10 8 10 16 17 15
13 13 14 14 15 16 16 16 16 16 17 16 17 18 18 19 22 23 22 20 20 22 22 22 24 24 23 22 23 24 23 22 21 22 22 22 24 25 24 24 22 16 12 8 5 10 18 21 23 25 25 27 27 24 24 24 24 23 23 23 24 23 24 24 23 23 22 21 21 18 17 15 15 19 20 16 12 9 10 10 7 10 16 18 16
13 13 14 15 16 17 18 17 17 16 17 16 16 17 17 17 19 20 19 18 19 21 21 21 22 23 23 22 22 23 22 22 22 21 21 20 21 23 23 24 23 18 15 12 4 4 16 22 23 24 24 25 26 24 24 24 23 22 23 23 23 23 23 24 24 23 22 20 20 18 17 15 15 19 20 16 12 11 12 10 7 10 16 18 17
15 15 16 16 16 18 18 18 17 17 17 16 16 16 15 15 16 17 18 17 17 18 19 19 21 22 23 21 21 22 21 21 21 21 20 19 19 20 20 21 23 21 19 16 7 3 10 19 22 23 23 25 27 26 26 25 23 23 23 22 22 22 23 24 24 23 22 21 20 19 17 16 16 18 18 16 14 13 12 11 8 11 16 17 16
16 17 18 18 17 17 17 18 18 17 16 14 14 15 14 14 14 14 15 17 17 17 17 18 20 21 21 20 20 20 20 20 20 19 19 19 18 19 20 20 20 20 19 17 13 8 9 15 21 22 23 26 26 26 26 26 24 24 23 22 21 21 23 25 23 22 21 21 20 19 18 17 16 17 17 16 15 13 13 11 10 12 15 16 16
16 17 17 17 16 16 16 17 16 14 13 13 13 13 14 13 13 13 13 15 17 17 16 16 18 19 19 20 20 19 18 18 18 18 17 17 18 18 19 19 18 18 19 21 20 14 11 14 19 21 23 27 27 27 27 26 25 24 22 21 21 22 24 24 23 22 21 21 21 20 18 18 18 19 19 17 15 14 14 12 11 13 15 15 15
15 15 15 15 15 14 14 15 15 13 12 13 13 12 12 12 12 12 11 12 15 16 17 15 14 17 18 18 18 17 16 15 17 18 17 16 17 17 18 19 19 19 20 22 24 20 16 16 17 20 24 27 26 26 27 25 24 24 23 21 21 22 23 23 22 21 21 21 21 19 18 19 21 22 19 17 16 15 14 13 12 13 15 15 15
13 13 14 15 15 16 15 15 14 13 11 12 13 12 11 11 10 10 9 10 12 13 15 14 13 15 17 16 16 14 13 15 17 17 17 17 18 19 20 20 21 22 21 22 24 23 21 20 19 20 23 22 20 22 26 26 24 22 21 21 22 22 22 21 20 20 20 20 19 19 20 21 22 20 17 17 17 16 15 13 13 14 15 16 15
12 13 15 16 16 16 17 15 14 12 11 11 12 12 10 10 10 9 8 8 9 9 9 11 11 12 14 15 17 18 16 16 18 17 16 17 18 20 21 22 22 23 22 22 24 23 22 22 22 21 21 22 21 21 25 28 26 23 21 20 20 20 20 19 18 18 18 20 21 21 22 22 20 17 17 17 17 16 15 13 14 15 16 16 16
13 14 15 16 16 16 16 16 14 13 11 11 11 10 9 9 9 8 8 7 7 6 6 7 8 8 11 12 14 16 16 15 17 17 17 17 18 19 21 22 22 22 22 23 24 23 21 21 22 21 21 22 23 22 24 27 26 23 24 22 19 18 19 19 20 21 21 22 23 23 22 20 18 16 17 17 16 15 14 14 15 16 16 17 16
15 16 16 17 16 16 15 15 15 13 12 11 10 8 9 9 8 8 8 8 8 8 7 7 7 7 8 9 10 11 13 14 14 16 16 17 18 20 20 21 21 21 23 23 23 22 22 22 21 21 21 21 21 22 23 24 21 21 25 26 23 21 20 20 22 23 24 25 24 23 22 20 18 18 18 17 16 15 14 14 15 16 16 17 16
16 17 17 17 17 17 16 15 14 13 13 13 11 9 9 9 8 8 8 9 9 10 9 8 8 7 7 7 7 8 10 12 13 14 14 15 17 20 20 21 22 24 25 25 23 22 21 20 18 19 20 21 21 23 24 26 25 24 26 26 23 21 22 22 22 23 25 25 25 24 23 21 20 20 20 19 17 16 14 14 15 16 16 15 14
18 18 17 18 19 20 19 17 16 14 15 15 13 10 8 7 6 6 8 9 9 9 10 10 10 8 6 6 6 7 9 10 11 11 12 13 15 17 18 20 23 25 25 24 22 22 21 19 19 20 20 19 23 26 26 26 26 26 27 26 22 21 20 18 17 20 24 26 25 24 23 22 22 21 21 20 19 17 16 15 15 15 14 13 12
21 20 20 22 23 23 22 21 20 19 19 18 15 11 9 8 7 8 10 11 10 10 11 12 13 11 9 7 6 6 7 8 8 7 9 11 13 14 15 17 21 24 24 23 22 21 20 18 19 22 22 21 25 27 25 24 25 25 27 28 24 22 21 17 13 15 22 26 26 24 22 21 22 22 22 21 20 18 17 15 13 12 12 12 12
25 24 25 25 25 25 25 25 24 23 22 20 17 15 13 12 11 12 14 15 15 15 14 14 13 12 12 10 7 4 5 7 7 6 7 9 11 12 13 13 15 18 20 22 22 22 21 18 19 22 24 24 26 27 26 27 27 26 26 27 26 26 25 22 18 17 21 27 27 23 20 19 19 21 21 20 19 18 16 14 13 12 12 12 12
27 28 29 28 28 28 28 28 27 25 23 21 19 18 16 15 13 15 17 17 18 17 17 16 15 14 13 12 10 7 4 4 6 6 7 7 8 9 11 11 11 12 14 16 18 20 22 21 20 20 21 22 26 29 30 30 28 26 25 26 27 28 27 27 26 22 22 26 28 23 19 17 18 19 20 19 17 16 15 14 13 13 13 13 13
29 30 30 30 30 29 29 28 28 27 25 22 21 20 19 18 17 18 20 21 21 21 20 19 19 18 17 15 15 13 9 6 3 2 4 6 9 10 9 8 7 7 9 11 13 15 18 19 18 18 18 20 25 30 31 30 29 29 29 29 29 29 28 27 25 22 20 25 29 24 17 16 18 18 18 18 16 15 15 14 14 14 14 13 12
29 30 30 30 31 31 30 29 29 29 26 23 22 23 22 22 23 24 24 25 26 27 26 23 23 23 21 19 18 16 15 13 9 4 5 9 12 14 15 15 12 9 5 2 7 11 14 14 14 14 14 15 19 24 27 29 29 29 30 31 30 29 26 21 18 17 18 23 28 22 15 14 18 18 17 17 17 17 17 16 15 15 14 12 11
30 31 32 32 32 32 31 30 30 30 28 24 23 25 26 27 29 30 31 31 32 33 32 29 27 25 24 22 21 20 19 18 14 10 11 13 16 20 23 25 24 23 21 16 9 8 9 9 8 8 10 11 11 14 19 23 24 24 23 23 24 24 21 16 13 15 19 22 25 21 15 16 18 18 18 18 19 20 20 19 18 16 14 13 12
31 32 33 34 35 34 34 33 32 32 30 26 24 25 27 29 31 33 34 35 35 36 36 35 32 29 27 24 22 22 23 23 21 19 20 21 24 26 28 30 31 30 28 25 22 20 18 17 16 13 11 9 9 9 11 17 20 21 19 18 20 22 20 15 11 13 19 21 23 22 17 18 19 20 21 21 21 23 21 20 19 18 16 16 15
30 30 33 36 37 36 36 35 35 35 33 30 28 29 30 32 34 34 34 36 36 36 37 37 36 34 32 29 26 26 27 26 25 25 26 27 29 29 30 33 34 31 27 25 26 25 24 23 22 20 19 17 13 11 8 9 15 18 18 18 19 22 21 16 13 13 14 17 20 20 16 20 22 24 26 22 18 20 22 21 21 20 19 19 17
30 31 34 37 37 36 36 36 36 36 35 33 32 33 34 36 37 36 37 38 37 36 37 38 38 38 37 35 32 30 28 27 27 27 28 29 30 30 32 34 34 31 28 28 28 27 26 27 26 23 23 23 20 18 15 11 10 10 12 14 17 20 20 18 17 14 8 10 18 18 16 22 26 28 28 21 11 13 20 23 22 21 20 19 19
Wind_Direction
237 251 259 256 258 260 260 264 270 272 259 244 239 237 234 232 229 221 212 208 203 200 214 255 272 286 303 273 216 210 212 206 196 190 186 185 186 195 196 187 175 164 187 195 160 160 155 154 170 173 162 159 163 159 162 162 152 145 142 144 135 125 120 111 118 122 111 107 115 116 107 107 108 106 108 113 117 117 112 110 111 106 100 96 91
241 255 263 265 263 261 260 264 268 273 269 254 243 243 243 241 241 237 230 224 220 223 239 256 266 274 283 276 226 209 209 204 195 191 187 183 175 178 196 194 186 186 192 181 170 171 173 181 179 178 173 166 164 152 155 158 157 165 160 158 148 141 140 118 122 126 124 125 124 116 110 111 110 107 106 108 111 117 118 117 117 112 107 105 101
247 255 263 269 268 262 260 260 262 267 273 266 251 247 249 250 250 250 249 244 239 243 254 260 264 268 266 261 237 212 207 204 199 193 189 185 167 159 184 197 202 206 201 174 183 196 187 184 179 183 179 168 165 153 153 148 150 156 146 153 151 141 141 133 124 122 128 132 127 117 112 113 112 109 106 103 103 110 117 117 118 118 112 108 109
256 258 263 268 270 268 264 260 259 258 262 267 261 254 252 254 255 255 258 259 260 260 263 266 264 263 258 245 233 217 207 206 202 195 196 193 173 162 181 196 205 209 210 188 190 206 192 179 178 184 179 171 170 170 175 168 168 168 158 167 165 147 139 137 127 125 133 127 122 123 120 116 112 116 112 105 101 102 109 113 118 120 115 109 107
261 262 264 267 268 268 267 265 263 259 255 256 258 262 265 263 258 256 258 260 266 268 263 258 253 254 251 236 226 218 210 209 206 200 206 205 187 172 182 198 207 206 213 203 188 196 198 190 182 181 178 174 175 180 181 172 176 182 177 174 169 161 143 141 144 137 138 129 123 123 121 116 106 112 115 113 108 103 109 113 116 117 115 113 108
264 266 268 268 267 266 266 265 264 263 258 253 253 258 263 266 267 264 259 255 259 264 258 244 240 244 241 232 224 218 213 213 213 210 212 210 195 179 183 203 211 207 211 205 192 194 202 201 190 190 188 180 183 186 184 178 180 181 175 165 160 160 147 143 145 138 141 135 132 123 107 102 95 94 112 122 118 111 114 114 114 116 117 117 111
270 271 270 267 266 264 264 265 264 264 261 259 256 251 250 253 263 266 263 259 256 257 253 241 237 239 235 228 223 220 216 214 215 215 215 209 196 185 190 205 212 209 207 202 198 199 205 207 200 206 204 188 196 198 189 187 184 175 169 165 158 155 151 147 142 140 144 132 128 126 108 96 90 93 110 123 125 116 114 114 114 114 116 116 109
273 270 265 262 261 262 263 264 265 264 264 266 264 258 254 250 252 258 259 260 262 259 248 238 236 235 232 225 221 220 216 211 212 215 215 206 195 191 198 207 211 209 205 202 201 202 208 210 202 205 205 194 199 195 186 182 179 173 169 171 167 162 155 152 150 144 137 125 126 132 123 105 94 101 112 120 120 112 108 114 119 118 117 115 109
268 262 259 258 259 262 266 267 264 263 264 269 270 265 263 255 249 249 249 250 257 258 247 238 236 232 228 223 217 218 217 212 212 214 212 205 198 197 202 208 211 209 206 204 204 205 210 213 207 205 208 206 198 189 185 184 181 177 174 170 168 169 160 154 154 144 135 129 127 128 125 112 103 107 113 114 112 107 102 105 117 123 120 115 110
265 259 259 262 265 269 272 271 266 263 262 266 267 263 262 258 252 249 248 246 243 241 237 233 231 226 224 218 212 214 218 217 216 215 212 209 205 203 204 207 211 212 208 206 208 208 209 214 213 210 215 210 198 190 187 189 184 176 174 168 162 162 158 159 158 150 146 138 129 128 125 120 112 109 111 111 111 109 104 98 108 123 123 116 111
261 261 269 273 275 278 277 275 272 273 270 267 266 263 261 259 257 254 249 243 238 236 230 223 218 218 220 219 213 211 216 218 217 216 214 214 212 208 204 205 210 215 212 207 210 212 211 215 215 214 213 197 195 200 191 191 191 180 176 173 167 163 160 162 159 155 153 144 136 134 131 129 122 114 111 113 116 116 112 104 107 119 122 118 114
264 272 282 281 281 281 281 281 280 279 276 273 270 268 265 262 260 256 242 232 234 234 226 216 206 204 212 220 217 210 211 216 217 217 215 216 215 211 206 202 206 215 216 210 210 215 215 217 218 216 204 189 196 209 196 190 194 185 180 179 171 166 164 161 160 160 156 149 143 141 138 135 129 121 116 117 122 123 120 116 113 116 118 118 117
273 277 280 280 280 281 281 283 284 282 279 278 276 273 269 267 264 254 240 228 227 224 215 208 194 187 201 219 221 213 212 215 217 219 219 217 216 214 210 202 204 214 217 214 211 215 218 218 220 216 201 191 198 209 202 196 197 189 182 180 172 164 163 163 164 162 159 158 152 147 144 140 133 126 122 124 127 125 125 126 123 121 119 119 120
275 271 270 272 277 281 283 285 286 284 283 282 278 270 266 268 265 256 245 234 233 227 216 208 196 188 184 197 221 220 221 222 221 223 221 220 217 216 215 206 205 213 216 215 212 213 217 217 218 214 202 196 201 208 209 208 202 191 184 180 172 166 166 166 166 166 165 159 154 153 151 148 140 129 131 137 130 128 131 132 132 130 125 122 120
278 275 273 274 277 280 282 284 284 281 279 277 273 265 260 263 262 260 254 239 236 233 223 216 204 190 177 174 209 211 224 226 225 227 224 223 222 218 218 212 208 215 217 215 213 212 214 213 212 211 203 199 205 207 210 215 199 188 187 181 172 171 172 169 166 168 169 159 153 158 156 151 148 140 143 146 136 134 138 138 135 132 128 123 120
287 288 285 282 281 282 282 281 279 278 275 271 267 260 256 257 256 258 255 243 239 237 231 223 210 194 179 167 176 181 224 211 213 227 224 223 226 221 220 218 214 219 220 216 214 213 211 207 207 209 204 202 207 208 210 213 191 184 188 180 176 178 175 173 173 165 159 160 163 163 156 152 153 149 149 149 146 143 140 142 139 133 130 124 121
296 296 293 289 285 283 282 280 278 276 274 272 270 265 260 257 255 255 253 249 248 245 242 234 223 219 216 201 159 204 245 179 192 226 222 220 226 225 223 223 221 222 221 217 216 215 210 205 204 207 206 203 208 210 212 211 191 185 187 183 184 186 181 181 181 169 153 158 167 163 155 156 159 155 153 153 153 150 143 145 143 137 133 128 128
301 297 295 294 290 286 283 281 280 278 274 272 273 272 268 264 261 258 256 256 254 248 244 239 232 228 226 224 221 208 157 153 174 218 218 219 224 224 224 224 224 223 219 216 217 216 211 205 203 205 206 205 210 211 213 212 195 188 190 191 193 192 190 189 183 177 166 160 162 162 160 163 166 159 155 155 154 153 149 146 144 139 136 134 134
307 300 297 296 293 290 288 287 287 285 283 278 274 274 273 271 268 264 262 259 252 247 246 240 231 227 228 230 230 223 194 177 190 183 196 217 220 219 221 222 221 219 218 217 217 217 212 205 203 205 205 205 209 212 214 213 201 194 195 197 196 193 194 195 189 184 179 172 165 165 167 169 169 162 156 156 150 147 146 143 142 141 142 141 130
312 308 306 304 300 296 295 295 293 292 291 288 284 281 277 274 272 270 268 262 254 252 253 245 233 227 227 228 230 231 222 204 206 217 208 198 211 215 221 223 218 212 214 217 218 218 214 208 205 205 206 206 207 212 214 214 206 199 199 200 197 193 194 198 200 192 184 183 176 170 174 173 168 164 162 160 151 146 145 144 144 141 147 156 142
306 308 309 308 305 302 300 298 296 296 295 292 290 287 283 277 273 270 268 264 258 254 252 247 241 236 230 228 228 227 224 219 218 223 224 206 195 202 210 218 217 210 212 216 219 221 217 212 209 207 208 209 207 210 214 214 211 205 203 203 199 195 197 201 203 198 192 190 183 179 181 175 170 168 168 169 163 156 150 147 146 138 146 173 166
305 308 310 309 307 306 305 301 298 297 294 293 290 287 284 281 276 271 266 263 259 253 251 250 248 242 234 229 226 218 218 224 223 220 225 226 212 200 194 196 203 207 212 216 218 221 220 216 213 212 212 213 211 211 214 215 214 210 205 202 200 197 199 202 203 201 197 194 190 190 186 177 176 174 173 175 172 165 156 153 155 147 150 172 161
308 310 312 311 309 308 307 303 300 297 295 295 293 289 287 283 280 275 268 265 261 255 251 249 247 244 237 229 224 219 214 215 214 209 211 216 203 193 197 198 201 203 209 216 217 218 220 218 216 216 216 217 215 214 216 218 217 215 209 203 202 200 199 202 206 205 201 198 197 199 192 182 183 182 179 179 173 168 166 162 162 161 158 155 146
302 303 306 309 308 305 304 302 301 300 299 299 297 295 292 286 282 277 271 267 262 255 250 249 249 245 238 231 230 229 224 221 216 207 207 213 206 190 188 194 200 205 207 211 215 218 219 218 219 220 219 219 219 217 218 220 219 218 214 208 206 204 202 204 206 205 204 203 204 208 202 191 191 190 185 183 176 173 174 165 164 169 162 151 148
295 295 299 303 303 302 303 302 301 302 303 302 299 296 294 288 281 276 274 273 266 258 255 256 256 250 242 237 235 233 230 228 222 211 211 216 213 200 185 185 188 193 197 202 209 216 218 218 218 219 221 222 221 218 218 220 219 217 216 213 209 206 206 208 208 204 203 205 208 215 213 201 198 195 187 185 180 178 177 171 172 173 162 155 152
296 294 297 300 300 301 303 303 303 305 304 301 298 297 295 289 281 275 272 271 267 261 258 256 254 251 247 241 234 231 231 230 224 218 216 214 208 197 182 185 188 176 178 194 201 207 213 215 217 217 220 223 221 217 216 218 218 215 215 214 212 208 207 210 212 207 204 208 212 219 224 215 201 191 186 185 181 179 182 183 186 177 163 159 155
302 298 298 298 300 303 304 304 305 306 304 302 300 297 296 290 284 277 272 269 266 261 258 254 250 248 245 241 236 233 231 227 222 220 218 214 209 201 186 172 181 176 167 187 197 206 207 209 216 217 218 221 221 218 216 216 217 214 213 214 213 209 207 209 213 212 209 212 216 222 230 237 213 187 183 189 186 186 193 197 203 183 166 162 158
303 299 299 300 302 306 306 305 307 307 306 305 301 296 294 290 284 278 273 269 265 261 260 257 253 250 245 241 238 233 230 227 222 220 218 213 210 203 193 183 174 173 177 179 191 208 208 204 210 217 217 217 219 218 216 215 216 215 213 213 212 208 206 208 210 213 213 214 222 226 230 246 223 184 182 193 192 193 199 203 212 187 171 167 166
307 303 303 305 306 308 308 306 308 309 309 307 304 298 296 292 284 278 275 272 266 263 262 259 257 253 246 242 239 233 230 227 223 223 221 215 211 206 198 195 189 173 171 192 190 199 204 203 205 212 215 216 217 218 216 214 214 215 214 212 210 208 206 206 207 211 214 216 224 226 228 239 213 182 184 192 191 197 204 203 212 191 176 172 174
317 312 310 310 311 312 310 309 307 307 307 308 308 303 298 293 287 280 276 273 270 268 266 263 260 254 245 241 240 236 232 228 224 225 225 219 216 214 207 204 203 196 181 185 200 199 199 202 206 210 212 212 214 216 213 211 212 214 213 211 210 209 207 207 206 207 211 216 220 223 230 230 201 186 189 187 188 204 204 201 209 197 183 179 181
328 326 322 320 322 321 317 315 313 311 312 313 313 309 302 295 288 282 277 274 271 271 270 266 261 254 245 239 238 236 234 231 228 226 224 221 220 218 215 211 211 210 198 186 199 203 197 199 205 211 213 210 209 210 209 208 211 213 212 211 210 210 209 209 207 206 207 212 216 222 230 224 198 192 193 186 192 209 202 201 208 196 188 185 187
339 337 334 331 330 328 323 321 320 319 319 320 319 315 307 297 289 285 283 280 273 269 268 265 260 254 247 238 236 236 234 231 227 224 221 220 220 219 218 213 211 213 207 197 194 200 200 203 204 207 213 210 205 206 207 208 210 212 212 214 214 212 210 209 207 206 207 210 215 220 226 223 206 198 194 188 198 207 201 207 210 193 191 190 191
348 345 342 339 334 328 323 321 320 318 318 320 321 318 311 300 292 289 288 284 276 271 268 265 261 257 249 241 236 234 233 229 224 220 218 217 218 217 218 215 210 212 209 198 182 159 195 206 206 205 208 206 203 205 207 207 207 209 212 217 220 215 210 209 207 206 208 212 216 218 221 223 213 200 194 193 201 204 204 212 209 195 194 194 194
346 347 345 342 338 332 327 324 321 318 319 324 324 321 317 305 295 293 292 287 281 276 271 267 265 259 250 243 237 232 230 228 221 218 218 215 213 212 212 212 208 209 210 203 196 184 179 194 200 199 200 201 201 202 207 207 205 207 211 214 219 216 209 208 207 206 210 214 216 217 219 220 214 205 201 201 204 206 207 213 208 197 196 196 194
344 346 344 341 339 337 336 334 330 328 334 339 335 327 324 315 302 299 299 293 288 279 267 259 258 255 247 239 234 227 224 223 219 217 216 213 211 207 206 210 209 207 210 210 209 198 175 183 193 191 192 198 200 200 204 208 207 208 210 209 213 213 206 205 207 207 211 215 217 217 218 215 208 203 203 205 207 208 210 214 209 199 196 195 193
347 348 345 343 344 346 347 345 341 342 345 346 342 336 333 326 311 305 304 298 292 282 268 256 249 248 246 239 233 227 221 219 220 219 215 213 213 209 208 211 212 211 210 209 209 202 182 177 186 190 193 195 198 200 201 203 207 210 209 205 206 208 204 204 207 210 214 218 217 213 212 209 201 197 201 207 208 210 213 215 210 200 196 194 192
349 350 350 354 359 359 357 351 345 344 344 342 342 341 341 334 318 308 310 303 296 287 275 267 259 254 255 252 245 238 224 217 219 219 217 215 214 212 212 209 207 209 209 205 205 204 194 182 180 190 196 190 190 199 200 197 197 201 204 204 203 204 203 203 207 210 211 211 207 202 200 199 197 197 203 208 209 213 216 213 208 201 195 193 194
350 352 355 0 4 4 3 357 350 345 339 332 333 337 339 336 325 321 329 322 308 300 285 278 275 268 266 263 256 248 234 222 220 220 216 212 211 212 211 210 207 205 204 205 204 203 198 189 183 186 188 182 181 190 197 197 194 191 193 197 200 202 201 198 200 202 200 194 191 191 192 193 196 202 206 208 210 213 213 209 205 199 194 194 196
359 359 0 3 5 7 7 3 358 352 342 330 328 336 343 344 341 343 353 350 336 335 324 304 296 279 266 260 254 247 242 235 233 231 225 217 216 218 216 216 211 202 199 204 204 200 194 187 184 183 180 180 182 185 191 195 194 191 187 184 189 199 200 195 192 188 186 186 185 187 192 195 199 203 204 206 210 210 207 204 200 197 196 197 199
14 12 12 12 10 12 12 9 8 6 356 346 342 346 352 356 360 1 2 0 356 0 1 340 324 304 285 276 264 254 252 251 251 247 240 228 222 222 220 217 211 203 202 202 198 195 191 184 183 181 176 178 181 181 183 185 184 186 187 183 184 191 194 194 193 186 183 185 187 190 194 198 200 200 200 201 204 204 201 199 198 199 200 201 202
26 26 27 26 23 23 22 19 20 19 14 12 12 8 5 8 10 7 10 14 11 10 10 359 349 339 322 310 293 277 267 261 258 253 246 237 227 222 217 212 208 204 203 201 197 193 189 182 178 175 174 177 179 176 177 182 184 187 188 186 186 190 191 191 194 193 190 190 192 195 198 201 201 199 199 199 199 198 198 198 199 201 203 204 206
39 40 43 42 39 37 34 32 34 36 37 37 33 25 22 24 22 24 33 36 33 29 26 22 19 12 356 343 325 303 285 270 257 249 249 249 240 229 218 210 207 203 198 197 198 196 192 186 179 176 176 182 185 182 183 187 188 188 188 186 184 186 187 186 190 197 199 198 198 198 199 202 203 201 200 201 201 199 198 200 202 203 205 205 205
50 52 54 51 48 46 45 45 47 49 51 51 48 42 42 42 42 51 56 55 54 53 50 46 43 35 19 5 346 317 297 285 274 260 257 256 249 238 224 211 209 208 203 200 199 198 197 194 187 184 185 188 190 189 187 188 189 190 191 188 184 183 183 182 184 195 202 204 203 200 198 201 204 204 202 203 206 204 203 205 206 205 205 203 203
56 58 58 56 54 53 53 52 52 54 55 53 51 48 47 46 48 54 58 58 57 58 56 53 52 47 37 25 10 344 308 292 287 272 250 242 240 239 233 219 208 207 208 208 207 205 204 203 198 195 194 193 192 191 188 190 192 193 193 191 188 188 188 187 190 194 200 203 202 196 193 195 202 205 204 204 208 208 206 207 207 204 204 202 200
60 61 60 59 57 56 54 52 52 56 58 55 54 53 50 48 50 54 57 57 55 55 54 53 53 52 47 40 33 24 353 295 279 266 245 227 215 212 217 214 206 204 206 210 214 214 213 212 209 207 201 196 195 196 194 195 194 190 190 192 193 194 194 195 197 197 196 198 196 186 180 186 195 200 200 199 203 207 205 203 204 202 199 196 190
60 60 59 58 57 56 55 54 54 54 55 56 58 59 57 56 57 59 60 59 57 57 57 58 58 57 53 50 47 40 30 16 348 268 210 175 154 147 153 159 168 188 203 210 216 219 220 219 216 213 208 202 202 202 198 198 198 195 194 196 197 198 199 199 202 201 195 194 193 183 169 177 189 191 192 193 194 198 196 191 189 187 184 183 180
59 59 59 58 57 57 56 57 56 52 51 56 62 65 65 66 66 66 66 64 63 62 63 65 64 61 59 57 54 49 44 42 45 75 128 137 132 121 111 103 98 96 94 147 208 211 214 218 218 214 210 207 208 206 202 202 205 206 206 205 203 202 198 194 195 195 190 191 194 186 162 166 184 183 180 184 185 180 177 172 170 171 169 168 167
62 61 61 59 58 59 58 57 56 52 49 53 61 67 69 69 68 68 68 68 67 65 65 66 66 62 61 60 58 58 57 58 63 81 103 113 108 101 94 86 82 78 70 68 92 144 163 172 174 182 195 205 211 213 212 210 209 211 211 205 201 196 186 173 168 177 183 186 194 194 168 157 176 174 161 166 169 163 160 159 156 157 156 151 145
64 63 62 61 61 61 60 59 57 56 53 52 57 65 69 71 69 68 67 67 65 62 63 66 67 66 65 64 64 66 70 73 77 85 93 95 89 86 85 81 78 75 70 71 82 91 100 108 109 110 125 151 171 185 205 211 210 215 214 200 193 189 178 164 155 170 180 183 192 200 178 155 167 166 149 149 157 153 150 151 149 147 146 141 134
69 67 66 66 64 62 61 60 60 61 59 58 61 64 66 69 70 68 67 67 64 61 62 64 66 67 69 71 72 74 77 81 85 87 91 90 83 78 80 79 74 69 65 71 79 82 85 90 92 91 90 96 108 116 131 173 192 205 213 208 200 192 182 174 164 162 173 182 191 199 177 153 161 161 145 138 144 148 147 147 146 144 140 136 132
74 72 70 69 66 63 61 62 62 62 61 61 64 67 67 68 69 68 68 66 63 61 61 62 62 63 66 71 74 78 80 81 82 83 86 88 84 79 80 79 73 67 66 71 75 76 75 75 76 76 74 74 80 83 82 97 134 169 197 205 202 197 191 185 168 154 160 190 195 196 177 157 161 161 152 142 135 149 154 150 145 142 138 134 132
Height
819 820 821 821 821 822 822 822 822 823 823 823 824 824 825 825 825 825 826 826 825 826 826 826 826 826 826 826 827 828 829 829 830 831 831 832 833 835 836 836 836 836 835 835 835 835 835 836 836 836 836 836 836 836 836 836 837 837 837 838 838 838 838 839 839 838 838 838 838 838 838 838 837 837 837 837 837 837 837 837 837 837 837 837 836
820 820 821 821 821 821 822 822 822 823 823 824 824 825 825 826 826 826 826 826 826 826 826 826 826 826 826 826 826 827 828 829 829 830 831 831 832 834 836 837 837 836 836 835 835 835 836 836 836 837 836 836 836 836 837 837 837 838 838 838 839 839 839 839 839 839 839 839 839 838 838 838 838 838 838 838 838 838 838 838 838 838 838 838 838
820 820 820 821 821 821 822 822 823 823 823 824 824 825 826 826 826 826 826 826 826 826 826 826 826 826 826 827 826 827 827 828 829 829 830 830 829 831 835 837 837 836 836 835 835 835 835 836 837 837 837 837 837 837 837 837 838 838 838 839 839 839 840 840 840 840 840 840 840 839 839 839 839 839 839 839 839 839 839 839 840 840 839 839 839
819 820 820 820 821 821 821 821 822 822 823 823 824 825 826 826 826 826 826 826 826 826 826 826 826 826 826 827 826 826 826 827 828 829 829 829 827 827 830 835 837 836 835 835 835 835 835 836 837 837 837 837 837 838 838 838 838 838 839 839 839 840 840 840 840 840 840 840 840 840 840 840 840 840 840 840 840 840 840 841 841 841 841 840 840
819 820 820 820 820 820 820 819 820 820 821 822 824 826 827 826 826 826 825 825 826 826 826 826 826 826 826 827 826 826 826 826 827 828 829 829 827 825 828 833 835 835 834 834 834 835 835 836 837 837 837 837 838 838 838 838 838 838 839 839 839 840 840 841 841 841 841 841 841 841 841 841 841 841 841 841 841 841 841 842 842 842 842 842 841
818 819 819 819 818 818 817 817 817 817 819 820 822 825 825 825 825 824 824 824 824 825 825 825 825 826 826 826 826 826 825 825 825 826 827 827 827 826 827 831 834 834 833 833 834 834 835 836 836 837 837 837 838 838 838 838 838 838 839 839 839 840 840 841 841 841 841 842 842 842 842 842 842 842 842 842 842 842 843 843 843 843 843 843 843
817 817 817 816 816 815 815 815 815 816 817 817 820 821 821 821 823 823 823 823 823 824 824 824 825 825 825 825 825 825 825 824 824 825 825 826 825 826 827 830 833 833 832 832 832 834 835 836 836 837 837 837 838 838 838 838 838 839 839 839 840 840 840 841 842 842 842 842 843 843 843 843 843 842 842 842 843 843 843 844 844 844 845 844 844
816 815 814 814 813 813 813 813 814 815 815 816 818 819 819 819 821 821 821 821 821 822 822 823 823 824 824 824 824 825 824 823 823 823 824 825 825 825 827 829 831 832 831 831 831 833 834 835 836 836 836 837 837 838 838 839 839 839 839 839 839 840 840 841 842 842 843 843 843 844 844 844 844 843 843 843 844 844 845 845 845 846 846 846 846
814 813 812 811 811 811 811 812 813 813 814 814 816 817 817 818 819 820 819 818 819 820 820 821 822 822 822 822 823 823 823 823 822 822 823 824 824 824 826 828 830 831 830 830 831 832 833 834 835 836 836 836 837 838 838 839 839 839 839 839 839 840 840 841 842 842 843 843 844 844 844 845 844 844 844 845 845 845 846 846 846 847 847 847 847
811 811 810 810 810 810 810 811 811 812 812 813 814 815 815 816 816 817 817 817 817 817 818 820 821 821 821 821 821 821 822 822 822 821 822 822 823 823 825 827 829 830 829 829 830 831 832 833 834 835 835 836 836 837 838 839 839 840 840 839 840 840 840 841 842 843 844 844 844 844 845 845 845 845 845 846 846 847 847 848 848 848 848 849 849
809 809 809 810 809 809 809 809 810 811 811 812 813 813 813 813 814 814 815 815 816 815 816 817 819 820 821 822 820 819 820 821 821 820 820 821 822 822 823 825 827 829 829 828 829 830 831 832 833 834 834 835 836 837 838 839 839 839 840 840 840 840 840 841 842 843 844 844 844 845 845 845 846 846 847 847 848 848 849 849 849 850 850 850 850
809 809 809 809 808 807 807 808 809 810 811 811 812 812 812 812 812 813 813 813 814 814 815 816 816 817 819 821 821 819 818 819 820 820 820 820 821 821 822 823 825 827 828 828 828 829 830 831 832 832 833 834 835 836 837 838 839 839 840 840 840 840 841 842 843 843 844 844 845 845 846 846 846 847 848 848 849 850 850 851 851 851 851 852 852
809 809 808 806 806 806 806 807 808 809 810 810 811 811 811 811 812 811 811 811 812 812 813 814 815 815 817 819 819 818 818 818 819 819 819 819 820 820 821 821 823 825 827 827 827 828 829 830 831 832 832 833 835 836 837 838 839 839 840 840 840 840 841 842 843 844 844 845 845 846 846 846 847 847 848 849 850 850 851 852 852 852 853 853 853
809 807 805 805 805 805 805 806 807 808 809 809 810 810 810 810 811 810 809 809 809 809 811 812 813 813 814 816 818 817 817 817 818 818 818 819 819 819 819 819 821 823 825 826 826 827 828 829 830 831 832 833 834 835 836 837 838 839 839 840 840 841 841 842 843 844 844 845 846 846 847 847 847 848 849 849 850 851 852 852 853 853 854 854 854
806 805 804 804 804 804 804 804 805 805 807 807 808 808 809 809 810 810 809 808 808 808 809 809 810 811 813 815 815 816 817 816 816 816 816 817 817 817 817 817 818 821 823 824 825 825 826 827 829 830 831 832 833 834 836 837 838 839 839 840 841 841 842 842 843 844 845 845 846 847 847 848 848 849 849 850 850 851 852 853 853 854 855 855 856
804 803 802 802 802 802 802 802 803 804 804 805 805 806 807 807 808 809 808 808 807 807 807 808 809 810 812 813 813 814 815 813 813 813 814 815 815 815 815 816 817 819 822 823 823 824 825 826 827 829 830 831 832 834 835 836 838 838 839 840 841 842 842 842 843 844 845 846 847 847 848 848 849 849 850 850 851 852 852 853 854 855 855 856 857
802 801 801 801 801 801 801 801 802 802 802 803 803 804 805 805 806 806 807 807 806 806 805 807 808 808 809 810 811 812 811 810 811 812 811 812 812 813 814 814 815 817 820 821 821 822 824 825 826 828 829 830 831 833 834 836 837 838 839 840 841 842 842 843 843 843 844 845 847 847 848 849 850 850 851 851 851 852 853 853 854 855 856 856 857
800 800 800 800 800 800 800 800 800 800 801 801 802 802 803 804 804 805 805 805 805 804 804 804 805 806 806 806 806 806 805 807 810 811 810 810 810 811 812 812 813 815 817 818 819 821 822 823 825 826 828 829 830 832 834 835 836 837 838 839 840 841 842 843 843 844 845 845 846 848 848 849 850 851 851 851 852 852 853 854 854 855 856 857 857
798 798 798 798 799 798 798 798 798 798 798 799 799 800 801 801 802 803 803 803 803 803 802 803 803 803 803 803 804 803 803 805 807 809 809 809 809 809 810 810 811 812 814 816 817 819 820 822 824 825 826 828 829 831 833 834 836 837 838 839 840 841 842 843 843 844 845 846 847 848 848 849 850 851 852 852 852 853 853 854 855 856 856 857 858
798 798 797 797 797 796 796 796 796 796 796 796 797 797 798 798 799 800 800 801 801 801 801 801 801 800 800 801 802 802 801 802 804 805 807 807 807 808 808 808 809 810 811 814 815 817 819 820 822 824 825 826 828 830 831 833 835 836 837 838 839 840 841 842 843 844 845 846 847 848 848 849 850 851 852 852 853 853 854 854 855 856 856 857 858
798 798 797 796 796 795 795 794 794 794 794 794 794 794 795 795 796 797 797 797 798 798 798 798 797 797 797 798 799 800 801 801 802 803 804 804 805 805 806 807 808 809 810 812 814 815 817 819 820 822 824 825 827 828 830 832 833 835 836 837 838 839 840 842 843 844 845 846 846 847 848 849 850 851 851 852 853 853 854 855 856 856 856 857 858
797 797 796 795 795 794 794 793 793 793 792 792 792 792 792 792 792 793 793 794 794 794 794 794 794 793 794 795 796 798 799 799 800 801 802 802 801 802 803 804 806 806 808 810 812 814 816 817 819 821 822 824 825 827 828 830 832 833 835 836 837 838 839 841 842 844 845 845 846 847 847 848 849 850 851 852 852 853 854 855 856 856 856 857 858
797 796 796 795 794 793 793 792 791 791 791 791 790 790 790 789 789 789 790 790 790 790 790 790 790 791 791 792 792 793 794 795 795 797 799 799 798 799 800 801 803 804 806 808 810 812 814 816 817 819 820 822 824 825 827 829 830 832 834 835 836 837 838 840 841 843 844 845 846 846 847 847 848 850 850 851 852 853 854 855 855 855 855 856 857
798 796 795 795 794 793 792 791 790 790 790 789 789 788 787 787 786 786 786 786 787 787 787 787 787 787 788 788 788 789 789 790 790 792 795 796 796 796 797 799 802 803 804 807 809 811 812 813 815 817 819 820 822 823 825 827 829 831 832 834 835 836 837 839 840 842 843 844 845 846 846 847 848 849 850 851 852 853 854 854 855 855 855 856 857
797 796 795 794 793 792 791 790 789 789 788 787 787 786 785 785 784 783 783 782 783 784 784 785 785 785 785 785 785 786 786 787 788 789 792 794 795 795 796 797 799 801 803 805 807 809 809 810 813 815 817 818 820 822 823 825 827 829 831 832 834 835 836 838 839 841 843 844 845 845 846 847 849 850 851 851 852 853 854 854 855 855 856 856 857
797 795 794 793 792 791 790 789 788 787 787 785 785 784 783 783 782 781 780 780 780 781 781 781 782 782 782 782 781 782 783 784 785 786 789 791 792 793 796 797 798 799 801 803 805 806 807 808 810 813 815 816 818 820 821 823 825 827 829 830 832 833 834 836 838 840 842 843 844 845 845 846 847 849 851 851 852 853 853 854 855 855 856 857 858
796 794 793 792 790 789 788 787 786 785 784 783 782 782 781 780 779 778 778 778 778 778 778 778 779 779 779 778 777 778 780 781 782 783 785 787 788 790 793 795 797 799 800 802 803 804 805 807 809 810 812 814 816 818 819 821 823 825 827 828 830 831 833 835 837 839 841 842 843 844 845 845 845 847 850 851 852 853 853 854 854 855 857 857 858
794 793 792 790 789 788 786 785 784 783 782 781 780 779 778 777 776 776 775 775 775 775 775 775 775 776 775 775 775 776 777 778 779 781 782 784 786 788 790 792 794 797 799 800 801 802 803 805 807 808 810 812 814 815 817 819 821 823 825 826 828 829 831 833 835 837 839 841 842 843 844 845 845 847 849 850 851 852 853 854 854 855 856 857 858
793 791 790 789 787 786 784 783 782 781 780 779 778 776 776 775 774 773 773 772 773 773 773 773 773 773 773 773 774 774 775 776 777 779 780 782 784 785 788 790 791 793 796 799 799 799 801 803 804 806 808 810 812 813 815 817 819 821 823 824 826 828 829 831 833 835 837 839 841 842 843 844 845 846 848 849 851 852 852 853 854 855 856 857 858
791 790 788 787 786 784 783 782 780 779 778 777 776 774 773 773 771 771 770 770 771 770 770 770 770 770 771 772 773 772 773 774 775 777 778 780 782 784 786 788 790 791 792 795 797 797 798 800 802 803 805 807 809 811 813 815 817 819 821 822 824 826 827 829 831 833 836 838 840 841 842 843 844 845 847 849 850 851 852 853 854 854 855 856 857
790 789 787 785 784 783 781 780 779 777 776 775 774 772 771 770 770 769 768 768 768 768 768 768 768 769 770 771 771 771 772 773 774 775 776 778 780 782 784 786 789 791 791 792 794 795 796 798 799 801 803 805 807 809 812 814 816 817 819 821 822 824 826 828 829 831 834 836 838 840 841 842 843 845 846 848 849 851 851 852 853 854 855 856 857
789 788 786 784 783 782 780 779 777 776 775 773 772 771 769 768 768 767 767 767 766 766 766 766 767 767 768 768 769 770 771 772 772 773 775 776 778 780 782 784 786 789 791 792 793 794 795 796 798 800 802 804 806 808 810 812 814 816 818 819 820 822 824 826 828 830 832 835 837 839 840 841 842 844 845 847 849 850 851 852 852 853 854 855 856
789 787 786 784 782 781 779 777 776 775 773 771 770 769 768 767 766 765 765 765 764 764 764 765 766 766 766 766 767 768 769 770 771 772 773 774 776 777 780 782 784 786 789 791 792 793 794 796 797 799 801 802 804 805 807 810 812 814 816 818 819 821 823 824 826 828 831 833 835 837 839 840 841 842 844 846 848 849 850 850 851 852 852 853 855
788 787 785 783 782 780 778 776 775 773 772 770 769 767 766 765 764 763 762 762 762 762 763 763 763 764 766 765 765 766 767 768 769 770 771 772 774 776 777 780 783 784 787 790 791 792 793 794 796 798 799 800 802 803 806 808 810 813 815 817 818 820 821 823 825 827 829 832 834 836 838 839 841 842 844 845 846 848 849 849 850 850 851 852 853
788 786 785 783 781 779 777 775 773 772 770 769 767 766 765 764 763 761 761 760 761 761 761 761 762 763 765 764 763 764 765 767 768 769 770 771 772 774 776 778 781 783 785 787 789 790 792 793 795 796 797 798 799 801 804 807 810 811 813 815 817 818 820 821 823 825 828 830 832 834 836 838 840 841 843 844 846 847 847 848 849 849 850 851 852
788 786 784 782 780 778 776 774 772 771 770 768 766 765 764 763 762 761 759 759 759 760 760 760 761 763 764 763 763 764 765 766 768 768 769 770 771 772 774 776 779 781 783 785 786 788 789 791 793 794 795 796 798 800 803 806 809 810 812 814 816 817 818 820 822 824 826 828 830 833 835 837 838 840 842 843 844 845 846 847 847 848 849 850 851
787 786 784 782 780 778 776 774 772 771 769 768 766 765 764 762 761 760 759 758 758 758 758 759 761 762 762 762 763 764 764 765 766 767 768 768 769 770 772 774 776 778 781 783 785 786 786 788 790 792 794 796 799 801 802 804 807 809 812 813 815 816 817 819 821 822 825 827 829 832 834 836 838 839 841 842 843 844 845 845 846 847 848 849 849
787 785 783 782 780 778 776 774 772 771 769 768 766 765 764 763 761 760 759 758 758 758 758 759 760 761 761 762 763 763 764 764 765 766 766 767 767 769 771 772 774 776 779 781 782 783 784 786 788 790 792 794 798 801 802 802 805 807 810 812 814 815 816 818 819 821 823 826 828 831 833 835 837 838 840 841 842 843 843 844 845 846 847 848 849
787 786 784 782 780 778 777 775 772 771 769 768 767 765 765 764 763 761 760 759 758 758 759 760 760 761 762 762 763 763 764 764 765 765 766 766 766 768 769 771 773 775 777 779 780 781 783 786 788 789 791 793 794 797 800 802 804 806 807 810 812 814 815 816 818 820 823 825 827 830 832 834 836 837 839 840 841 841 842 843 844 845 846 847 848
788 786 784 783 781 779 777 775 773 772 770 768 767 766 765 764 763 762 760 759 758 759 760 761 761 762 762 762 763 763 764 764 764 765 765 766 766 767 768 770 772 774 776 777 779 781 783 785 786 787 789 791 792 795 799 801 803 804 805 807 809 811 813 815 818 820 822 824 827 829 831 833 834 836 837 839 840 840 841 842 843 844 845 847 848
789 787 785 784 782 780 778 776 774 773 771 769 767 766 765 764 764 763 761 759 759 759 759 760 762 762 762 762 762 763 763 763 763 764 764 765 765 766 768 769 771 773 774 776 778 780 781 783 785 786 788 789 790 793 795 797 798 801 803 805 808 810 812 815 818 819 821 824 826 828 830 831 833 834 835 837 838 839 840 841 842 844 845 846 847
790 788 786 784 782 781 779 777 775 774 772 770 769 768 766 765 764 764 762 760 760 760 760 760 762 762 762 762 762 762 762 761 763 763 763 764 764 765 767 769 770 771 773 775 776 778 779 780 782 784 786 787 788 790 791 794 796 799 801 803 806 809 812 815 817 819 821 823 825 827 828 830 831 833 834 835 837 838 839 840 842 843 844 846 847
791 789 787 785 784 783 781 779 778 776 774 773 772 771 769 767 766 765 763 762 761 761 761 761 762 763 763 763 763 762 761 761 762 763 763 763 764 765 767 768 770 770 771 773 775 777 778 779 780 781 782 784 786 788 791 794 796 798 800 802 804 807 810 813 815 817 818 821 823 825 827 828 830 831 833 834 836 837 838 840 841 843 844 845 846
793 791 789 787 786 785 784 782 780 778 777 776 775 774 772 770 769 767 765 764 763 763 763 763 764 764 764 764 763 763 762 762 762 763 763 763 764 765 766 768 770 770 771 772 773 775 777 778 779 779 779 781 783 785 788 791 794 796 799 801 802 804 807 809 811 813 815 818 821 823 825 827 829 830 832 833 835 836 838 840 841 842 843 844 845
795 793 791 790 788 787 786 785 783 781 780 779 778 776 775 773 772 770 768 767 765 765 765 765 765 765 765 765 764 763 763 762 762 763 763 764 764 765 766 768 769 770 770 772 772 774 776 777 778 778 779 781 782 783 785 788 791 795 798 800 801 803 804 806 808 810 812 815 818 821 824 826 827 829 830 832 834 836 837 839 840 841 842 843 844
797 795 794 792 791 790 789 788 787 785 784 783 781 779 778 776 774 773 771 769 768 767 767 767 767 766 766 766 766 766 765 764 764 764 764 765 765 765 766 768 769 769 770 771 772 774 775 776 777 778 779 781 781 782 785 787 790 793 794 796 799 800 802 805 807 810 811 813 815 817 821 824 826 827 829 830 832 835 836 838 839 840 842 843 843
800 798 797 796 795 794 793 792 790 789 788 787 785 783 781 779 778 776 774 772 771 770 770 769 769 769 769 769 769 768 767 766 766 766 766 766 766 767 767 769 770 770 770 771 772 773 775 776 777 778 780 781 782 783 786 787 790 792 793 794 797 799 802 805 808 810 812 813 814 816 819 823 824 825 827 829 831 833 835 837 838 840 841 842 843
803 801 800 799 798 797 797 796 794 793 792 791 789 787 785 783 781 779 777 776 775 774 773 772 771 772 772 772 771 770 769 769 769 769 769 769 769 769 770 771 771 771 773 774 774 774 775 776 777 778 780 781 782 784 786 788 791 794 795 796 798 800 802 805 807 809 811 813 815 815 817 821 823 824 827 829 831 833 835 836 837 839 840 841 843
805 804 803 802 801 801 800 799 798 797 796 796 794 791 789 786 784 783 781 780 779 778 778 776 776 776 776 775 774 773 773 773 773 773 773 772 773 774 773 774 774 775 778 779 778 777 778 778 779 780 780 781 782 784 786 788 791 795 796 797 798 799 802 804 807 809 810 811 814 814 815 819 823 824 826 830 832 833 835 836 837 839 840 841 842
809 808 807 805 805 805 804 804 803 801 800 800 798 796 793 791 788 787 786 784 783 783 782 781 781 780 779 778 777 777 777 777 778 778 777 776 777 778 778 777 778 780 783 784 782 781 781 781 781 782 783 783 783 785 787 789 791 794 796 797 798 799 801 803 805 808 810 812 813 814 816 819 822 823 826 830 834 835 835 836 838 839 840 841 842
812 811 810 809 808 809 809 808 806 805 804 804 802 800 798 795 793 792 790 788 788 788 787 787 786 785 784 782 781 781 781 782 782 782 781 780 782 783 783 781 783 786 788 787 786 786 785 784 784 785 786 786 786 788 790 791 792 794 796 797 798 800 801 802 804 807 810 811 812 813 816 818 821 822 823 827 833 836 837 837 838 840 841 842 842